IU3OVK-13 Weather Reports


time (UTC)temp
F
wind
direction
speed
knots
gust
knots
rain 1hr
in
rain 24hr
in
rain mn
in
humidity
%
barometer
mb
20260506204648 54 0.0 0.0 0.00 0.00 0.00 99 1005.0
20260506203714 55 0.0 0.0 0.00 0.00 0.00 99 1004.7
20260506203629 55 0.0 0.0 0.00 0.00 0.00 99 1004.7
20260506200528 55 0.0 0.0 0.00 0.00 0.00 99 1004.2
20260506194447 55 0.0 0.0 0.00 0.00 0.00 99 1004.1
20260506184247 57 0.0 0.0 0.00 0.00 0.00 99 1003.5
20260506183226 57 0.0 0.0 0.00 0.00 0.00 99 1003.4
20260506181146 58 0.0 0.0 0.00 0.00 0.00 99 1003.2
20260506175106 59 0.0 0.0 0.00 0.00 0.00 99 1003.3
20260506174045 59 0.0 0.0 0.00 0.00 0.00 99 1003.2
20260506173025 60 0.0 0.0 0.00 0.00 0.00 99 1003.0
20260506172005 61 0.0 0.0 0.00 0.00 0.00 99 1002.8
20260506165925 59 0.0 0.0 0.00 0.00 0.00 99 1002.7
20260506164905 59 0.0 0.0 0.00 0.00 0.00 99 1002.8
20260506161804 59 0.0 0.0 0.00 0.00 0.00 99 1003.0
20260506160744 59 0.0 0.0 0.00 0.00 0.00 99 1002.9
20260506153644 60 0.0 0.0 0.00 0.00 0.00 99 1002.8
20260506152623 59 0.0 0.0 0.00 0.00 0.00 99 1002.9
20260506151603 58 0.0 0.0 0.00 0.00 0.00 99 1002.9
20260506150543 57 0.0 0.0 0.00 0.00 0.00 99 1003.0
20260506145523 56 0.0 0.0 0.00 0.00 0.00 99 1003.4
20260506144503 58 0.0 0.0 0.00 0.00 0.00 99 1003.3
20260506142422 57 0.0 0.0 0.00 0.00 0.00 99 1003.1
20260506141402 58 0.0 0.0 0.00 0.00 0.00 99 1003.1
20260506140342 58 0.0 0.0 0.00 0.00 0.00 99 1003.0
20260506135322 58 0.0 0.0 0.00 0.00 0.00 99 1003.4
20260506134302 59 0.0 0.0 0.00 0.00 0.00 99 1003.5
20260506132222 60 0.0 0.0 0.00 0.00 0.00 99 1003.6
20260506131201 60 0.0 0.0 0.00 0.00 0.00 99 1004.0
20260506130141 60 0.0 0.0 0.00 0.00 0.00 99 1003.9
20260506125121 59 0.0 0.0 0.00 0.00 0.00 99 1004.1
20260506124101 62 0.0 0.0 0.00 0.00 0.00 99 1004.2
20260506123041 65 0.0 0.0 0.00 0.00 0.00 99 1004.1
20260506122021 64 0.0 0.0 0.00 0.00 0.00 99 1004.6
20260506115941 68 0.0 0.0 0.00 0.00 0.00 99 1004.0
20260506114920 64 0.0 0.0 0.00 0.00 0.00 99 1004.2
20260506113901 64 0.0 0.0 0.00 0.00 0.00 99 1004.6
20260506112840 64 0.0 0.0 0.00 0.00 0.00 99 1004.4
20260506111820 65 0.0 0.0 0.00 0.00 0.00 99 1004.5
20260506110800 65 0.0 0.0 0.00 0.00 0.00 99 1004.1
20260506104719 60 0.0 0.0 0.00 0.00 0.00 99 1004.7
20260506102639 57 0.0 0.0 0.00 0.00 0.00 99 1004.7
20260506101620 58 0.0 0.0 0.00 0.00 0.00 99 1004.5
20260506100559 57 0.0 0.0 0.00 0.00 0.00 99 1004.8
20260506093458 60 0.0 0.0 0.00 0.00 0.00 99 1004.4
20260506092438 59 0.0 0.0 0.00 0.00 0.00 99 1004.3
20260506091418 57 0.0 0.0 0.00 0.00 0.00 99 1004.4
20260506090358 58 0.0 0.0 0.00 0.00 0.00 99 1004.2
20260506084318 56 0.0 0.0 0.00 0.00 0.00 99 1004.3
20260506083258 55 0.0 0.0 0.00 0.00 0.00 99 1004.1
20260506073057 54 0.0 0.0 0.00 0.00 0.00 99 1004.9
20260506072037 55 0.0 0.0 0.00 0.00 0.00 99 1004.8
20260506061836 54 0.0 0.0 0.00 0.00 0.00 99 1004.4
20260506060816 54 0.0 0.0 0.00 0.00 0.00 99 1004.5
20260506014847 54 0.0 0.0 0.00 0.00 0.00 99 1006.3
20260506013827 53 0.0 0.0 0.00 0.00 0.00 99 1006.8
20260506012807 54 0.0 0.0 0.00 0.00 0.00 99 1006.7
20260506011747 53 0.0 0.0 0.00 0.00 0.00 99 1007.0
20260506010726 53 0.0 0.0 0.00 0.00 0.00 99 1006.4
20260506004646 53 0.0 0.0 0.00 0.00 0.00 99 1006.7
20260506002606 54 0.0 0.0 0.00 0.00 0.00 99 1006.5
20260506001546 54 0.0 0.0 0.00 0.00 0.00 99 1006.9
20260506000525 54 0.0 0.0 0.00 0.00 0.00 99 1007.2
20260505234445 53 0.0 0.0 0.00 0.00 0.00 99 1007.9
20260505233425 53 0.0 0.0 0.00 0.00 0.00 99 1007.8
20260505232405 53 0.0 0.0 0.00 0.00 0.00 99 1007.7
20260505221144 54 0.0 0.0 0.00 0.00 0.00 99 1007.1
20260505220124 54 0.0 0.0 0.00 0.00 0.00 99 1006.5
20260505213023 54 0.0 0.0 0.00 0.00 0.00 99 1006.2
20260505212003 55 0.0 0.0 0.00 0.00 0.00 99 1006.2
20260505210943 55 0.0 0.0 0.00 0.00 0.00 99 1006.5